Probability
0 0 0 0 0 0 0 0 0 0 0 0 0 0 0 0 0 0 0 0 0 0 0 0 0 0 3 6 6 0 0 0 0 0 0 0 0 0 0 0 0 0 0 0
0 0 0 0 0 0 0 0 0 0 0 0 0 0 0 0 0 0 0 0 0 0 0 0 0 0 3 6 6 0 0 0 0 0 0 0 0 0 0 0 0 0 0 0
0 0 0 0 0 0 0 0 0 0 0 0 0 0 0 0 0 0 0 0 0 0 0 0 0 0 0 3 3 3 0 0 0 0 0 0 0 0 0 0 0 0 0 0
0 0 0 0 0 0 0 0 0 0 0 0 0 0 0 0 0 0 0 0 0 0 0 0 0 0 0 0 0 0 3 0 0 0 0 0 0 0 0 0 0 0 0 0
0 0 0 0 0 0 0 0 0 0 0 0 0 0 0 0 0 0 0 0 0 0 0 0 0 0 0 0 0 0 0 0 0 0 0 0 0 0 0 0 0 0 0 0
0 0 0 0 0 0 0 0 0 0 0 0 0 0 0 0 0 0 0 0 0 0 0 0 0 0 0 0 0 0 0 0 0 0 0 0 0 0 0 0 0 0 0 0
0 0 0 0 0 0 0 0 0 0 0 0 0 0 0 0 0 0 0 0 0 0 0 0 0 0 0 0 0 0 0 0 0 0 0 0 0 0 0 0 0 0 0 0
0 0 0 0 0 0 0 0 0 0 0 0 0 0 0 0 0 0 0 0 0 0 0 0 0 0 0 0 0 0 0 0 0 0 0 0 0 0 0 0 0 0 0 0
0 0 0 0 0 0 0 0 0 0 0 0 0 0 0 0 0 0 0 0 0 0 0 0 0 0 0 0 0 0 0 0 0 0 0 0 0 0 0 0 0 0 0 0
0 0 0 0 0 0 0 0 0 0 0 0 0 0 0 0 0 0 0 0 0 0 0 0 0 0 0 0 0 0 0 0 0 0 0 0 0 0 0 0 0 0 0 0
0 0 0 0 0 0 0 0 0 0 0 0 0 0 0 0 0 0 0 0 0 0 0 0 0 0 0 0 0 0 0 0 0 0 0 0 0 0 0 0 0 0 0 0
0 0 0 0 0 0 0 0 0 0 0 0 0 0 0 0 0 0 0 0 0 0 0 0 0 0 0 0 0 0 0 0 0 0 0 0 0 0 0 0 0 0 0 0
0 0 0 0 0 0 0 0 0 0 0 0 0 0 0 0 0 0 0 0 0 0 0 0 0 0 0 0 0 0 0 0 0 0 0 0 0 0 0 0 0 0 0 0
0 0 0 0 0 0 0 0 0 0 0 0 0 0 0 0 0 0 0 0 0 0 0 0 0 0 0 0 0 0 0 0 0 0 0 0 0 0 0 0 0 0 0 0
0 0 0 0 0 0 0 0 0 0 0 0 0 0 0 0 0 0 0 0 0 0 0 0 0 0 0 0 0 0 0 0 0 0 0 0 0 0 0 0 0 0 0 0
0 0 0 0 0 0 0 0 0 0 0 0 0 0 0 0 0 0 0 0 0 0 0 0 0 0 0 0 0 0 0 0 0 0 0 0 0 0 0 0 0 0 0 0
0 0 0 0 0 0 0 0 0 0 0 0 0 0 0 0 0 0 0 0 0 0 0 0 0 0 0 0 0 0 0 0 0 0 0 0 0 0 0 0 0 0 0 0
0 0 0 0 0 0 0 0 0 0 0 0 0 0 0 0 0 0 0 0 0 0 0 0 0 0 0 0 0 0 0 0 0 0 0 0 0 0 0 0 0 0 0 0
0 0 0 0 0 0 0 0 0 0 0 0 0 0 0 0 0 0 0 0 0 0 0 0 0 0 0 0 0 0 0 0 0 0 0 0 0 0 0 0 0 0 0 0
0 0 0 0 0 0 0 0 0 0 0 0 0 0 0 0 0 0 0 0 0 0 0 0 0 0 0 0 0 0 0 0 0 0 0 0 0 0 0 0 0 0 0 0
0 0 0 0 0 0 0 0 0 0 0 0 0 0 0 0 0 0 0 0 0 0 0 0 0 0 0 0 0 0 0 0 0 0 0 0 0 0 0 0 0 0 0 0
0 0 0 0 0 0 0 0 0 0 0 0 0 0 0 0 0 0 0 0 0 0 0 0 0 0 0 0 0 0 0 0 0 0 0 0 0 0 0 0 0 0 0 0
0 0 0 0 0 0 0 0 0 0 0 0 0 0 0 0 0 0 0 0 0 0 0 0 0 0 0 0 0 0 0 0 0 0 0 0 0 0 0 0 0 0 0 0
0 0 0 0 0 0 0 0 0 0 0 0 0 0 0 0 0 0 0 0 0 0 0 0 0 0 0 0 0 0 0 0 0 0 0 0 0 0 0 0 0 0 0 0
0 0 0 0 0 0 0 0 0 0 0 0 0 0 0 0 0 0 0 0 0 0 0 0 0 0 0 0 0 0 0 0 0 0 0 0 0 0 0 0 0 0 0 0
0 0 0 0 0 0 0 0 0 0 0 0 0 0 0 0 0 0 0 0 0 0 0 0 0 0 0 0 0 0 0 0 0 0 0 0 0 0 0 0 0 0 0 0
Height
5648 5647 5645 5644 5643 5643 5642 5643 5645 5646 5647 5648 5650 5653 5657 5659 5661 5665 5669 5673 5677 5682 5687 5692 5697 5702 5708 5714 5719 5724 5729 5733 5739 5744 5749 5755 5759 5764 5769 5773 5778 5781 5785 5789
5639 5637 5636 5634 5633 5633 5632 5633 5634 5636 5637 5637 5639 5641 5645 5647 5649 5653 5657 5661 5665 5670 5675 5680 5686 5691 5697 5703 5708 5714 5719 5723 5729 5734 5740 5746 5751 5755 5760 5765 5769 5773 5777 5781
5629 5629 5626 5625 5624 5624 5623 5623 5624 5625 5626 5626 5627 5629 5633 5635 5637 5641 5645 5649 5653 5658 5663 5668 5673 5679 5685 5692 5698 5703 5708 5713 5719 5724 5729 5735 5740 5745 5750 5755 5760 5765 5769 5772
5620 5619 5617 5616 5615 5615 5615 5615 5614 5615 5615 5616 5617 5617 5622 5624 5626 5630 5633 5637 5642 5647 5652 5657 5662 5668 5674 5680 5686 5692 5698 5703 5708 5714 5719 5725 5730 5736 5741 5746 5750 5755 5759 5763
5612 5610 5608 5607 5607 5606 5606 5605 5605 5605 5605 5605 5606 5606 5610 5612 5615 5619 5623 5627 5631 5635 5640 5645 5651 5656 5662 5668 5674 5680 5686 5691 5697 5703 5708 5714 5720 5725 5731 5735 5740 5745 5749 5754
5604 5602 5600 5599 5598 5597 5597 5597 5596 5595 5595 5594 5597 5597 5598 5601 5605 5609 5612 5616 5619 5624 5629 5634 5639 5645 5651 5657 5663 5669 5675 5680 5686 5692 5697 5703 5709 5714 5720 5725 5730 5735 5739 5743
5597 5595 5592 5591 5590 5589 5588 5588 5587 5586 5584 5585 5587 5586 5589 5592 5595 5598 5602 5605 5608 5613 5618 5623 5628 5633 5640 5645 5651 5657 5663 5669 5675 5680 5686 5692 5696 5702 5709 5714 5719 5724 5729 5734
5590 5587 5585 5583 5582 5580 5579 5579 5579 5577 5576 5577 5577 5577 5580 5582 5585 5588 5591 5595 5598 5602 5607 5612 5617 5622 5628 5634 5640 5646 5652 5658 5663 5669 5675 5680 5684 5690 5696 5702 5707 5713 5719 5724
5581 5579 5577 5575 5573 5572 5571 5570 5570 5569 5567 5567 5567 5569 5571 5573 5576 5578 5581 5584 5588 5592 5597 5601 5606 5612 5617 5623 5629 5635 5641 5646 5651 5657 5662 5667 5672 5678 5684 5690 5696 5702 5707 5712
5573 5571 5570 5568 5566 5564 5563 5562 5562 5560 5559 5558 5559 5560 5563 5564 5566 5569 5571 5574 5578 5582 5586 5591 5596 5601 5606 5612 5617 5623 5629 5635 5640 5645 5650 5655 5660 5666 5671 5677 5683 5689 5695 5700
5566 5564 5562 5560 5557 5556 5556 5555 5553 5552 5552 5551 5550 5554 5554 5556 5557 5560 5562 5565 5568 5572 5576 5580 5585 5591 5596 5601 5606 5612 5617 5623 5628 5633 5638 5643 5648 5653 5659 5665 5671 5677 5683 5688
5559 5556 5554 5552 5550 5548 5547 5547 5546 5546 5545 5544 5544 5548 5546 5547 5549 5551 5553 5556 5559 5562 5566 5570 5575 5580 5584 5590 5595 5600 5605 5610 5615 5620 5625 5630 5635 5641 5647 5652 5658 5664 5670 5676
5552 5549 5547 5544 5544 5542 5540 5539 5538 5538 5537 5537 5537 5541 5538 5539 5541 5542 5545 5547 5550 5553 5557 5561 5565 5570 5574 5579 5583 5588 5593 5598 5603 5608 5612 5618 5624 5629 5635 5640 5645 5651 5657 5663
5545 5542 5540 5539 5535 5534 5533 5532 5531 5531 5530 5529 5530 5532 5532 5532 5533 5535 5537 5539 5541 5544 5547 5551 5555 5559 5564 5568 5572 5577 5581 5586 5590 5595 5600 5606 5611 5617 5622 5628 5633 5639 5644 5650
5539 5536 5533 5531 5529 5527 5526 5526 5525 5524 5523 5523 5523 5524 5524 5525 5526 5527 5529 5531 5533 5536 5538 5542 5545 5549 5553 5557 5562 5566 5570 5574 5578 5583 5588 5593 5599 5604 5610 5615 5621 5626 5632 5638
5533 5531 5528 5526 5523 5522 5521 5520 5519 5518 5517 5516 5516 5517 5517 5517 5518 5519 5521 5522 5524 5527 5529 5532 5535 5539 5542 5546 5551 5555 5559 5563 5567 5572 5576 5582 5587 5593 5598 5603 5609 5614 5620 5626
5528 5525 5523 5521 5518 5516 5515 5514 5513 5512 5511 5511 5510 5511 5510 5510 5511 5512 5513 5514 5516 5518 5521 5524 5526 5529 5532 5536 5540 5544 5547 5551 5555 5560 5565 5570 5575 5581 5586 5591 5596 5602 5608 5614
5523 5520 5517 5515 5514 5512 5512 5508 5507 5506 5505 5504 5504 5504 5503 5503 5504 5504 5505 5506 5508 5509 5512 5514 5517 5519 5522 5525 5529 5532 5536 5540 5544 5548 5553 5558 5563 5569 5574 5579 5584 5590 5595 5601
5518 5515 5512 5509 5507 5506 5505 5503 5501 5500 5500 5498 5498 5498 5497 5497 5497 5498 5498 5499 5499 5501 5503 5505 5507 5509 5512 5514 5517 5521 5525 5528 5533 5537 5541 5546 5551 5556 5561 5567 5572 5577 5583 5588
5513 5510 5508 5504 5501 5500 5500 5497 5495 5495 5494 5493 5492 5491 5491 5490 5491 5492 5491 5491 5492 5493 5494 5495 5497 5499 5501 5503 5506 5510 5513 5517 5521 5526 5530 5535 5539 5544 5549 5555 5560 5565 5571 5576
5508 5505 5503 5499 5496 5495 5494 5491 5490 5490 5489 5487 5486 5485 5484 5484 5484 5484 5484 5484 5484 5485 5485 5486 5487 5489 5491 5493 5495 5499 5502 5506 5510 5515 5519 5523 5528 5533 5538 5544 5549 5554 5559 5564
5503 5500 5497 5494 5492 5492 5488 5486 5485 5484 5482 5481 5480 5479 5478 5478 5477 5477 5476 5476 5477 5477 5477 5478 5478 5480 5481 5483 5486 5489 5492 5496 5500 5504 5509 5513 5517 5522 5527 5532 5537 5542 5547 5552
5498 5495 5492 5490 5489 5485 5482 5480 5479 5477 5476 5474 5473 5473 5472 5471 5471 5470 5470 5470 5470 5470 5470 5470 5471 5472 5473 5474 5477 5479 5482 5485 5489 5494 5498 5503 5507 5511 5516 5521 5526 5531 5536 5541
5492 5489 5487 5484 5481 5479 5476 5474 5472 5470 5469 5468 5466 5465 5465 5464 5464 5463 5463 5463 5463 5463 5462 5463 5464 5464 5465 5466 5468 5470 5473 5476 5480 5484 5488 5493 5497 5502 5506 5511 5515 5520 5524 5529
5487 5484 5481 5478 5476 5473 5471 5468 5466 5464 5463 5461 5460 5458 5458 5457 5457 5456 5456 5456 5455 5455 5455 5455 5456 5457 5458 5459 5460 5462 5465 5468 5471 5475 5479 5483 5488 5492 5497 5501 5506 5510 5514 5519
5481 5478 5475 5473 5470 5467 5465 5462 5460 5458 5456 5454 5453 5452 5451 5450 5449 5449 5448 5448 5448 5448 5448 5448 5449 5450 5450 5452 5453 5455 5457 5460 5463 5466 5470 5474 5478 5483 5487 5492 5496 5499 5504 5508
Wind_Speed
32 32 32 32 32 33 34 35 35 35 36 38 40 41 42 43 44 45 46 46 47 47 47 46 46 46 46 46 46 45 46 47 46 46 46 44 43 42 41 40 39 38 37 36
32 31 30 31 32 32 33 34 34 34 35 37 38 40 41 42 43 45 45 46 46 46 47 48 48 48 47 47 47 47 47 48 48 48 47 46 44 44 42 42 41 40 39 39
31 30 29 30 30 31 32 33 33 34 34 37 38 39 39 40 42 43 45 47 46 47 47 48 49 49 49 48 48 48 47 48 49 49 48 48 47 46 44 43 42 42 41 40
29 28 28 29 30 30 31 32 33 33 34 35 38 40 38 39 41 42 43 46 47 47 47 48 49 50 50 50 50 49 49 49 50 50 50 49 49 49 46 44 43 43 43 42
28 28 28 28 29 30 30 30 32 33 34 35 37 39 38 39 41 42 42 44 46 47 46 46 48 50 50 50 51 51 50 50 50 52 51 51 51 50 49 47 46 45 44 44
27 27 27 27 27 28 28 28 30 32 33 36 35 37 38 38 39 40 42 42 44 46 47 46 47 49 50 51 51 51 51 51 51 52 52 52 52 51 51 49 48 47 46 45
26 27 27 27 27 27 27 27 28 30 32 34 34 35 36 36 37 39 40 41 42 44 46 47 47 49 49 50 50 50 51 51 52 52 53 53 54 54 53 51 50 48 47 47
27 27 27 27 27 26 26 27 27 29 31 32 33 34 34 35 36 38 38 39 41 42 44 46 48 49 49 49 49 49 50 50 52 52 53 53 53 54 53 52 51 50 48 48
29 28 27 27 26 26 27 27 26 28 30 31 32 33 34 34 35 37 38 39 40 41 43 45 47 48 49 49 50 50 49 49 50 51 51 52 53 54 53 54 54 52 51 49
28 28 26 26 26 26 26 26 25 26 27 29 31 32 32 32 34 36 38 39 39 40 42 43 46 47 48 50 51 51 50 49 49 51 51 51 52 54 55 54 54 53 52 51
28 27 25 25 25 25 24 24 24 25 26 28 29 31 31 32 33 34 35 37 38 39 41 43 45 45 46 48 50 51 51 50 50 51 51 52 53 54 55 54 53 52 52 51
27 27 26 24 24 23 24 23 23 24 25 27 28 28 29 31 32 33 33 34 35 37 39 42 44 44 45 46 48 50 51 51 51 51 52 52 52 52 53 54 54 53 52 52
27 26 25 24 23 22 22 23 22 24 24 25 27 27 28 30 31 32 33 34 34 36 38 40 42 44 45 46 47 48 50 51 51 52 52 53 53 52 52 54 54 53 53 53
27 25 24 23 23 22 22 21 21 22 23 24 25 26 26 28 29 30 31 32 33 34 36 39 40 42 44 44 46 47 47 49 50 52 52 53 52 52 52 54 55 54 54 53
25 24 23 22 21 20 20 19 20 21 22 24 24 25 26 27 27 29 30 31 33 33 35 37 39 41 42 43 45 45 46 47 49 50 52 52 53 53 52 52 53 54 54 54
22 22 21 20 20 19 19 18 19 20 21 22 22 23 25 27 27 28 29 30 31 32 34 35 38 40 41 42 44 44 45 46 47 49 51 51 52 53 53 53 54 54 53 52
22 21 20 20 19 19 19 18 18 19 20 21 21 21 23 25 26 27 28 29 31 32 32 33 35 37 39 41 42 43 45 45 46 48 50 51 52 52 53 53 53 54 54 53
22 21 20 20 19 19 19 19 18 18 19 20 20 21 22 23 24 26 27 28 29 32 33 34 35 36 38 40 41 42 44 45 45 46 48 49 50 51 52 52 52 53 54 53
21 20 20 20 19 19 18 19 18 18 18 19 19 20 21 22 23 25 27 28 28 30 32 35 36 36 38 39 40 42 43 45 45 45 46 48 49 50 51 51 51 51 52 53
20 20 20 20 20 19 18 18 19 19 18 18 19 19 20 21 22 23 25 26 28 28 30 32 34 35 37 39 40 41 42 44 44 44 45 46 47 48 49 50 50 49 49 50
20 20 20 21 21 19 18 18 18 18 18 18 19 19 19 20 22 23 24 25 26 27 29 29 31 32 34 36 38 39 41 42 43 43 44 45 46 46 48 49 49 49 49 49
21 21 21 21 21 19 19 19 19 18 18 19 20 20 20 20 21 22 23 24 25 25 26 27 28 30 31 32 34 37 39 40 42 43 43 44 45 45 46 47 47 48 48 48
20 21 21 21 21 21 20 20 20 20 20 20 20 21 21 21 21 22 22 23 23 24 25 25 26 27 29 30 32 33 35 37 39 41 42 42 43 44 45 45 45 46 46 46
20 20 21 21 21 20 21 21 21 22 22 21 21 22 23 23 22 22 22 23 23 24 24 24 25 26 27 28 29 30 32 35 37 39 40 41 42 43 43 42 43 44 45 45
21 21 20 20 20 20 20 21 22 22 23 23 22 23 23 24 23 24 24 24 24 25 25 25 25 25 26 26 27 28 30 31 34 37 38 39 41 42 42 42 42 43 44 44
22 22 21 21 21 21 21 22 22 22 23 23 23 23 23 24 24 24 24 24 25 25 25 25 26 26 26 26 26 28 29 30 31 34 37 38 39 40 42 42 42 42 43 45
Wind_Direction
286 282 277 275 271 269 267 264 262 258 255 254 253 251 248 246 244 242 240 239 239 238 236 235 234 233 232 233 232 232 230 229 229 229 229 230 231 232 233 233 232 233 234 234
286 282 279 274 271 270 269 266 262 258 255 254 254 252 250 247 244 241 241 239 238 237 235 234 234 233 232 233 232 232 231 230 229 229 230 230 231 232 233 233 233 233 234 235
289 285 280 275 272 270 270 268 263 260 256 254 253 252 249 247 245 242 240 239 238 237 236 234 233 232 232 232 232 232 232 230 229 229 230 230 230 232 233 233 232 232 234 235
291 286 280 276 274 273 271 269 264 261 259 256 254 255 249 247 244 241 239 238 238 238 237 235 233 232 231 231 231 232 231 231 230 230 230 230 231 231 231 233 232 232 233 234
295 289 283 278 276 274 273 271 266 261 260 259 257 256 252 249 245 242 241 239 237 236 236 235 234 232 231 231 231 231 231 231 231 231 231 231 231 232 231 232 232 232 232 233
298 293 286 281 278 277 274 271 266 261 261 260 257 257 254 250 246 242 241 240 238 235 235 235 235 232 231 231 231 231 231 232 232 231 231 232 231 232 232 233 234 233 232 233
299 294 288 282 278 277 274 272 268 264 262 261 258 257 254 252 248 244 241 240 238 236 235 235 234 232 231 230 231 231 231 232 232 232 232 232 231 232 232 234 235 234 233 234
300 296 290 284 280 279 275 271 269 268 265 262 258 255 253 252 250 246 243 240 238 236 235 234 233 231 230 231 231 231 232 233 233 233 232 232 231 230 231 233 233 234 234 235
301 297 293 287 282 279 275 271 270 269 266 264 259 256 255 253 250 247 244 241 239 237 235 234 231 229 230 231 232 232 233 234 234 234 233 233 233 232 231 232 233 233 234 234
303 299 293 289 284 280 277 275 270 268 266 264 260 257 256 253 249 246 245 242 239 237 235 233 230 229 230 232 232 233 233 234 235 235 234 234 234 233 232 232 233 234 234 235
306 300 295 288 284 281 278 275 273 269 266 264 262 257 255 252 250 247 245 243 241 239 235 233 230 230 231 231 233 233 234 235 235 236 236 236 236 234 234 234 234 234 235 235
307 302 297 291 285 281 278 275 272 268 264 261 260 258 256 253 250 248 246 244 242 240 237 235 234 233 233 233 234 234 235 235 236 236 236 236 236 236 235 235 235 235 235 235
307 303 298 292 286 281 278 277 274 268 265 263 258 257 256 255 252 250 249 246 244 242 239 237 236 236 236 235 235 235 236 236 236 236 236 236 237 236 236 237 236 237 236 235
306 304 301 295 290 286 282 281 277 271 268 266 261 257 254 253 252 252 251 249 247 245 242 239 237 237 236 236 236 236 236 237 237 236 236 236 236 236 237 237 238 237 237 237
308 306 304 299 292 287 285 280 276 274 271 267 262 256 252 251 250 251 252 250 248 246 244 241 238 238 238 237 237 237 237 237 237 236 236 236 235 236 236 238 238 237 237 238
310 308 306 302 294 288 283 281 276 275 273 269 264 258 252 252 250 249 250 251 249 246 244 242 241 240 238 237 237 236 236 236 237 237 236 236 235 236 236 237 237 236 237 239
311 310 308 305 298 291 284 282 278 277 274 270 267 263 256 253 251 250 250 250 248 245 242 242 242 242 240 239 239 238 236 236 236 236 237 236 236 236 236 237 237 237 238 239
311 312 310 309 303 293 286 282 278 276 276 271 269 266 261 256 254 253 253 253 251 247 245 245 244 244 243 241 240 239 238 237 237 237 236 235 236 237 237 238 238 238 238 239
313 312 311 310 305 297 286 281 279 278 276 272 270 268 263 259 256 255 255 255 254 251 249 248 247 246 244 242 240 238 238 237 237 237 236 236 237 238 237 237 238 239 239 239
314 311 309 310 307 301 293 286 280 277 274 272 271 270 267 262 258 256 256 256 255 253 252 251 249 247 245 244 242 239 237 237 236 236 237 236 236 237 237 236 237 239 239 239
315 311 307 305 304 301 296 291 284 279 276 273 271 270 270 268 263 259 258 258 257 256 254 254 253 250 247 245 242 240 238 237 236 236 236 235 235 236 235 235 236 237 238 239
314 312 308 305 303 301 297 294 289 286 282 277 272 270 271 270 268 265 262 261 260 260 257 255 253 251 248 246 244 241 239 238 236 235 235 235 235 235 234 234 235 236 237 239
311 310 307 305 302 299 296 294 291 288 285 282 275 272 273 271 269 268 265 262 262 261 258 255 253 250 249 247 245 242 239 237 236 236 235 234 234 233 233 233 234 235 237 238
310 308 306 304 302 299 296 293 291 289 286 285 281 275 273 273 270 268 267 265 263 262 260 257 254 251 250 249 245 241 237 235 234 234 234 232 231 231 233 234 234 236 236 236
308 306 305 304 302 299 296 294 291 289 287 285 282 279 275 273 270 269 269 267 265 263 261 259 257 253 251 248 245 241 237 234 234 233 232 231 231 232 232 233 233 235 236 237
308 307 305 304 302 300 298 295 292 290 288 285 282 280 278 275 274 273 272 270 267 265 262 259 257 255 253 250 247 244 240 237 235 233 230 230 230 230 231 232 233 235 236 237